Location: Beccas
(43.4309°N, 0.1528°E)
Time: 02:04:29
(UTC+00:00)

Meteor 1-24 Rocket - Pass Details

Date: 15 October 2021
Orbit: 790 x 927 km, 81.3° (Epoch: 02 December)

Event Time Altitude Azimuth Distance (km) Brightness Sun altitude
Rises 17:51:25 0° 347° (NNW) 3,421 7.0 -7.2°
Reaches altitude 10° 17:53:49 10° 344° (NNW) 2,501 6.3 -7.6°
Maximum altitude 17:59:27 66° 264° (W) 957 4.3 -8.6°
Drops below altitude 10° 18:05:16 10° 183° (S) 2,572 6.3 -9.7°
Sets 18:07:46 0° 180° (S) 3,524 7.0 -10.1°
